सभी
Husum Schwesing Airport QHU मौसम
There is no TAF data available at QHU or any nearby airports.
There is no METAR data available at QHU. Showing METAR data for ETNS (16 mi E).
Recent WBG METAR history (no data for QHU)
| Date | Time (CEST) | Flight Rules | Wind Dir. | Speed | Type | Height AGL (ft) | Visibility | Temp (°C) | Temp (°F) | Dew Point (°C) | Dew Point (°F) | Rel. Humid. | Pressure | Density Altitude | Remarks |
|---|---|---|---|---|---|---|---|---|---|---|---|---|---|---|---|
| 03-मई | 05:20 | n/a | Variable | 1 kt | Missing | 9° | 48° | 9° | 48° | 100% | 1012 mb | -614 ft | |||
| 03-मई | 04:20 | n/a | 20° | 2 kt | Missing | 8° | 46° | 8° | 46° | 100% | 1012 mb | -734 ft | |||
| 03-मई | 03:20 | n/a | 230° | 5 kt | Missing | 10° | 50° | 10° | 50° | 100% | 1013 mb | -524 ft | |||
| 03-मई | 02:20 | n/a | 240° | 4 kt | Missing | 11° | 51° | 11° | 51° | 100% | 1013 mb | -404 ft | |||
| 03-मई | 01:20 | n/a | 230° | 4 kt | Missing | 10° | 50° | 10° | 50° | 100% | 1013 mb | -524 ft | |||
| 03-मई | 00:20 | n/a | 240° | 2 kt | Missing | 12° | 53° | 12° | 53° | 100% | 1013 mb | -284 ft | |||
| 02-मई | 23:20 | n/a | 220° | 4 kt | Missing | 12° | 53° | 11° | 51° | 94% | 1014 mb | -313 ft | |||
| 02-मई | 22:20 | n/a | 270° | 4 kt | Missing | 14° | 57° | 11° | 51° | 82% | 1014 mb | -73 ft | |||
| 02-मई | 21:20 | n/a | 300° | 8 kt | Missing | 16° | 60° | 11° | 51° | 72% | 1014 mb | 167 ft | |||
| 02-मई | 20:20 | n/a | 270° | 7 kt | Missing | 17° | 62° | 8° | 46° | 55% | 1014 mb | 287 ft | |||
| 02-मई | 19:20 | n/a | 300° | 9 kt | Missing | 19° | 66° | 5° | 41° | 40% | 1014 mb | 527 ft | |||
| 02-मई | 18:20 | n/a | 320° | 11 kt | Missing | 20° | 68° | 8° | 46° | 46% | 1014 mb | 647 ft | |||
| 02-मई | 17:20 | n/a | 270° | 13 kt | Missing | 24° | 75° | 3° | 37° | 25% | 1014 mb | 1,127 ft | |||
| 02-मई | 16:20 | n/a | 250° | 15 kt | Missing | 24° | 75° | 1° | 33° | 22% | 1015 mb | 1,097 ft | |||
| 02-मई | 15:20 | n/a | 250° | 13 kt | Missing | 25° | 77° | 3° | 37° | 24% | 1015 mb | 1,217 ft | |||
| 02-मई | 14:20 | n/a | 240° | 15 kt | Missing | 25° | 77° | 2° | 35° | 22% | 1016 mb | 1,188 ft | |||
| 02-मई | 13:20 | n/a | 240° | 8 kt | Missing | 24° | 75° | 5° | 41° | 29% | 1016 mb | 1,068 ft | |||
| 02-मई | 12:20 | n/a | 210° | 11 kt | Missing | 23° | 73° | 6° | 42° | 33% | 1017 mb | 918 ft | |||
| 02-मई | 11:20 | n/a | 230° | 9 kt | Missing | 22° | 71° | 6° | 42° | 35% | 1017 mb | 798 ft | |||
| 02-मई | 10:20 | n/a | 200° | 10 kt | Missing | 20° | 68° | 6° | 42° | 40% | 1018 mb | 528 ft | |||
| 02-मई | 09:20 | n/a | 210° | 9 kt | Missing | 18° | 64° | 6° | 42° | 45% | 1018 mb | 288 ft | |||
| 02-मई | 08:20 | n/a | 170° | 8 kt | Missing | 16° | 60° | 6° | 42° | 51% | 1018 mb | 48 ft | |||
| 02-मई | 07:20 | n/a | 160° | 5 kt | Missing | 12° | 53° | 5° | 41° | 62% | 1019 mb | -461 ft | |||
| 02-मई | 06:20 | n/a | 150° | 5 kt | Missing | 11° | 51° | 4° | 39° | 62% | 1019 mb | -581 ft |
लॉगिन
| Your browser is unsupported. अपना ब्राऊजर अपग्रेड करें |
